This demonstration page uses our WeatherBlox Daily Observations layout. Learn more.

Left ArrowRight Arrow

Hourly Observations for February 25, 2015

Temp ( °F °C ) Dew Point ( °F °C ) Humidity (%) Winds ( mph kmh ) Pressure ( in mb ) Visibility ( mi km ) Precip ( " mm )
12:53 am 00:53 Cloudy 27 -2.8 12 -11.1 53 53 SW 8 13 29.91 1013 10 16.0934 N/A
1:53 am 01:53 Cloudy 26 -3.3 12 -11.1 55 55 SW 7 11 29.92 1013 10 16.0934 N/A
2:53 am 02:53 Clear 24 -4.4 12 -11.1 60 60 SW 6 9 29.92 1013 10 16.0934 N/A
3:53 am 03:53 Clear 23 -5 12 -11.1 63 63 WSW 6 9 29.93 1014 10 16.0934 N/A
4:53 am 04:53 Clear 21 -6.1 11 -11.7 65 65 WSW 5 7 29.94 1014 10 16.0934 N/A
5:53 am 05:53 Clear 15 -9.4 9 -12.8 77 77 N N/A 29.97 1015 10 16.0934 N/A
6:53 am 06:53 Clear 13 -10.6 8 -13.3 81 81 N N/A 29.98 1015 10 16.0934 N/A
7:53 am 07:53 Sunny 14 -10 9 -12.8 80 80 WNW 3 6 30.01 1016 10 16.0934 N/A
8:53 am 08:53 Sunny 24 -4.4 14 -10 65 65 W 3 6 30.03 1017 10 16.0934 N/A
9:53 am 09:53 Sunny 27 -2.8 16 -8.9 63 63 SW 3 6 30.04 1017 10 16.0934 N/A
10:53 am 10:53 Sunny 30 -1.1 16 -8.9 56 56 N N/A 30.03 1017 10 16.0934 N/A
11:53 am 11:53 Sunny 32 undefined 15 -9.4 50 50 NNE 7 11 30.01 1016 10 16.0934 N/A
12:53 pm 12:53 Sunny 32 undefined 14 -10 47 47 N N/A 29.97 1015 10 16.0934 N/A
1:53 pm 13:53 Sunny 34 1.1 14 -10 44 44 N N/A 29.95 1014 10 16.0934 N/A
2:53 pm 14:53 Sunny 35 1.7 13 -10.6 40 40 N N/A 29.91 1013 10 16.0934 N/A
3:53 pm 15:53 Sunny 35 1.7 12 -11.1 38 38 N N/A 29.93 1014 10 16.0934 N/A
4:53 pm 16:53 Sunny 34 1.1 14 -10 44 44 N 6 9 29.93 1013 10 16.0934 N/A
5:53 pm 17:53 Sunny 33 0.6 16 -8.9 49 49 NE 3 6 29.93 1014 10 16.0934 N/A
6:53 pm 18:53 Clear 31 -0.6 17 -8.3 56 56 NNE 8 13 29.96 1014 10 16.0934 N/A
7:53 pm 19:53 Clear 30 -1.1 18 -7.8 61 61 NE 6 9 29.93 1014 10 16.0934 N/A
8:53 pm 20:53 Clear 28 -2.2 17 -8.3 63 63 NE 7 11 29.94 1014 10 16.0934 N/A
9:53 pm 21:53 Clear 28 -2.2 17 -8.3 63 63 NE 6 9 29.95 1014 10 16.0934 N/A
10:53 pm 22:53 Clear 26 -3.3 17 -8.3 69 69 N 8 13 29.94 1014 10 16.0934 N/A
11:53 pm 23:53 Clear 25 -3.9 17 -8.3 72 72 N N/A 29.94 1014 10 16.0934 N/A

Powered by AerisWeather